Terminal Aerodrome Forecast
Issued by NWS Miami, FL

Home | Current Version | Previous Version | Text Only | Print | Product List | Glossary On
Versions: 1 2 3 4 5 6 7 8 9 10 11 12 13 14 15 16 17 18 19 20 21 22 23 24 25 26 27 28 29 30
000
FTUS42 KMFL 191720
TAFAPF
TAF
KAPF 191720Z 1918/2018 28016KT P6SM FEW021 SCT026 BKN030
     FM200100 29007KT P6SM FEW025=

USA.gov is the U.S. government's official web portal to all federal, state and local government web resources and services.